INTELSAT 10-02 (28358 NORAD) Tracking and Keplerian Element Data

This shows tracking and keplerian element data for the satellite.

Feedback or suggestion? Click here.




ElementValue
Catalog28358
NameINTELSAT 10-02
Epoch Orbit6324
Epoch Day268.61482799
Epoch Year2021
RAAN164.1173
Inclination0.0188
Eccentricity8.99E-05
Argument of Perigee50.8232
Mean Anonmoly10.0366
Mean Motion1.00272511
Decay Rate-1.4E-07
L11 28358U 04022A 21268.61482799 -.00000014 00000-0 00000-0 0 9995
L22 28358 0.0188 164.1173 0000899 50.8232 10.0366 1.00272511 63244

Live tracking and technical data element details for INTELSAT 10-02 (NORAD 28358). INTELSAT 10-02 can be tracked NOW for your location showing map with azimuth and elevation plus other details from your city location.

Track the satellite on the map from your city or location and see movement details for azimuth, elevation, latitude, longitude, range, height, and movement on the map or in text.







IsCatalogInMostPopularTable: catalog: 28358, numindb: 573
Update: records affected: 1



GetName: 28358 INTELSAT 10-02

Hit Count: updated at: Mon, 27 Sep 2021 01:40:44 GMT